Weather History for Hayward, CA

Change the Weather History Date:

Friday, January 25, 2013

  Actual Average Record
Temperature  
Mean Temperature 58 °F 50 °F  
Max Temperature 66 °F 58 °F 70 °F (2011)
Min Temperature 50 °F 43 °F 39 °F (2002)
Degree Days  
Heating Degree Days 7    
Month to date heating degree days 446  
Since 1 July heating degree days 1312  
Cooling Degree Days 0    
Month to date cooling degree days 0  
Year to date cooling degree days 0  
Growing Degree Days 8 (Base 50)    
Moisture  
Dew Point 51 °F    
Average Humidity 84    
Maximum Humidity 100    
Minimum Humidity 67    
Precipitation  
Precipitation 0.00 in - 0.97 in (2008)
Month to date precipitation 0.19  
Year to date precipitation 0.19  
Since 1 July precipitation 6.17  
Sea Level Pressure  
Sea Level Pressure 30.15 in    
Wind  
Wind Speed 3 mph (West)    
Max Wind Speed 10 mph    
Max Gust Speed 14 mph    
Visibility 5 miles    
Events      
T = Trace of Precipitation, MM = Missing Value Source: NWS Daily Summary

Daily Weather History Graph

Daily Weather History Graph

Search for Another Location

Airport:

Trip Planner

Search our weather history database for the weather conditions in past years. The results will help you decide how hot, cold, wet, or windy it might be!

Date:

Astronomy

Jan. 25, 2013 Rise Set
Actual Time 7:17 AM PST 5:24 PM PST
Civil Twilight 6:49 AM PST 5:52 PM PST
Nautical Twilight 6:17 AM PST 6:24 PM PST
Astronomical Twilight 5:46 AM PST 6:55 PM PST
Moon 4:27 PM PST (1/25) 6:00 AM PST (1/25)
Length of Visible Light 11h 03m
Length of Day
10h 07m
Waxing Gibbous, 98% of the Moon is Illuminated
Jan 25
Waxing Gibbous
Jan 26
Full
Feb 3
Last Quarter
Feb 9
New
Feb 17
First Quarter

Hourly Weather History & Observations

Time (PST) Temp. Dew Point Humidity Pressure Visibility Wind Dir Wind Speed Gust Speed Precip Events Conditions
12:54 AM 53.1 °F 51.1 °F 93% 30.21 in 5.0 mi SSE 3.5 mph - N/A   Overcast
1:54 AM 54.0 °F 51.1 °F 90% 30.22 in 5.0 mi Calm Calm - N/A   Overcast
2:54 AM 54.0 °F 52.0 °F 93% 30.22 in 4.0 mi Calm Calm - N/A   Overcast
3:54 AM 53.1 °F 51.1 °F 93% 30.19 in 3.0 mi Calm Calm - N/A   Overcast
4:54 AM 53.1 °F 51.1 °F 93% 30.19 in 4.0 mi Calm Calm - N/A   Overcast
5:31 AM 51.8 °F 50.0 °F 94% 30.17 in 3.0 mi NNW 3.5 mph - N/A   Mostly Cloudy
5:35 AM 51.8 °F 50.0 °F 94% 30.17 in 2.5 mi NNW 3.5 mph - N/A   Mostly Cloudy
5:48 AM 51.8 °F 51.8 °F 100% 30.17 in 3.0 mi Calm Calm - N/A   Overcast
5:54 AM 52.0 °F 51.1 °F 97% 30.20 in 3.0 mi Calm Calm - N/A   Overcast
6:05 AM 51.8 °F 50.0 °F 94% 30.17 in 2.0 mi Calm Calm - N/A   Overcast
6:38 AM 51.8 °F 50.0 °F 94% 30.17 in 2.0 mi NW 3.5 mph - N/A   Overcast
6:47 AM 51.8 °F 48.2 °F 88% 30.17 in 1.5 mi NW 3.5 mph - N/A   Overcast
6:54 AM 51.1 °F 48.9 °F 92% 30.20 in 1.5 mi NW 4.6 mph - N/A   Overcast
7:09 AM 51.8 °F 50.0 °F 94% 30.17 in 2.5 mi NNW 3.5 mph - N/A   Overcast
7:54 AM 53.1 °F 51.1 °F 93% 30.19 in 2.0 mi Calm Calm - N/A   Overcast
8:41 AM 53.6 °F 51.8 °F 94% 30.16 in 3.0 mi South 3.5 mph - N/A   Mostly Cloudy
8:54 AM 54.0 °F 51.1 °F 90% 30.20 in 2.5 mi SW 3.5 mph - N/A   Partly Cloudy
9:11 AM 53.6 °F 51.8 °F 94% 30.18 in 2.5 mi Calm Calm - N/A   Scattered Clouds
9:19 AM 53.6 °F 51.8 °F 94% 30.18 in 2.5 mi Calm Calm - N/A   Mostly Cloudy
9:28 AM 53.6 °F 51.8 °F 94% 30.18 in 2.5 mi Calm Calm - N/A   Mostly Cloudy
9:41 AM 55.4 °F 51.8 °F 88% 30.18 in 2.5 mi Calm Calm - N/A   Mostly Cloudy
9:54 AM 55.0 °F 52.0 °F 89% 30.21 in 2.5 mi South 3.5 mph - N/A   Scattered Clouds
10:16 AM 57.2 °F 51.8 °F 82% 30.17 in 3.0 mi SE 4.6 mph - N/A   Haze
11:54 AM 60.1 °F 53.1 °F 78% 30.17 in 5.0 mi West 8.1 mph - N/A   Haze
12:54 PM 59.0 °F 52.0 °F 78% 30.14 in 5.0 mi West 5.8 mph - N/A   Haze
1:54 PM 61.0 °F 53.1 °F 75% 30.12 in 7.0 mi West 6.9 mph - N/A   Scattered Clouds
2:54 PM 64.0 °F 54.0 °F 70% 30.10 in 7.0 mi West 8.1 mph - N/A   Overcast
3:54 PM 64.9 °F 53.1 °F 65% 30.08 in 10.0 mi West 9.2 mph - N/A   Partly Cloudy
4:54 PM 62.1 °F 52.0 °F 70% 30.07 in 10.0 mi WNW 6.9 mph - N/A   Scattered Clouds
5:54 PM 57.0 °F 51.1 °F 81% 30.08 in 10.0 mi Calm Calm - N/A   Clear
6:54 PM 55.9 °F 51.1 °F 84% 30.08 in 10.0 mi ESE 4.6 mph - N/A   Mostly Cloudy
7:54 PM 55.0 °F 51.1 °F 86% 30.09 in 9.0 mi Calm Calm - N/A   Clear
8:54 PM 55.9 °F 51.1 °F 84% 30.09 in 10.0 mi Calm Calm - N/A   Clear
9:54 PM 54.0 °F 50.0 °F 86% 30.09 in 10.0 mi West 5.8 mph - N/A   Clear
10:54 PM 54.0 °F 50.0 °F 86% 30.10 in 9.0 mi Calm Calm - N/A   Clear
11:54 PM 52.0 °F 48.9 °F 89% 30.09 in 7.0 mi Calm Calm - N/A   Overcast